Location: Cahas Mountain Overlook
(37.0833°N, 80.1000°W)
Time: 21:24:00
(UTC-05:00)

X-37B - Visible Passes

Search period start: 26 November 2022 00:00
Search period end: 06 December 2022 00:00
Orbit: 277 x 277 km, 45.0° (Epoch: 01 November)

Date Brightness Start Highest point End Pass type
(mag) Time Alt. Az. Time Alt. Az. Time Alt. Az.
26 Nov 2.3 05:26:42 21° SSE 05:26:42 21° SSE 05:27:43 10° SE visible
27 Nov 3.0 05:27:43 11° SSE 05:27:43 11° SSE 05:27:53 10° SSE visible
04 Dec 2.2 18:29:11 10° S 18:30:16 16° SSE 18:30:16 16° SSE visible
05 Dec 1.0 18:29:17 10° SW 18:31:11 35° S 18:31:11 35° S visible
